This demonstration page uses our WeatherBlox Daily Observations layout. Learn more.

Hourly Observations for December 21, 2016

Temp ( °F °C ) Dew Point ( °F °C ) Humidity (%) Winds ( mph kmh ) Pressure ( in mb ) Visibility ( mi km ) Precip ( " mm )
12:54 am 00:54 Clear 28 -2.2 25 -3.9 88 88 SSE 8 13 30.06 1018 10 16.0934 0 0
1:54 am 01:54 Clear 29 -1.7 25 -3.9 85 85 SSE 7 11 30.04 1017 10 16.0934 0 0
2:54 am 02:54 Clear 30 -1.1 25 -3.9 82 82 Calm 30.03 1017 10 16.0934 0 0
3:54 am 03:54 Clear 29 -1.7 25 -3.9 85 85 SSE 8 13 30.01 1016 10 16.0934 0 0
4:54 am 04:54 Clear 28 -2.2 24 -4.4 85 85 S 3 6 30.01 1016 10 16.0934 0 0
5:54 am 05:54 Mostly Cloudy 29 -1.7 23 -5 78 78 S 8 13 29.98 1015 10 16.0934 0 0
6:54 am 06:54 Clear 30 -1.1 23 -5 75 75 SSW 7 11 29.99 1016 10 16.0934 0 0
7:54 am 07:54 Sunny 29 -1.7 23 -5 78 78 SSW 5 7 30 1016 10 16.0934 0 0
8:54 am 08:54 Sunny 31 -0.6 24 -4.4 76 76 Calm 30.05 1018 10 16.0934 0 0
9:54 am 09:54 Sunny 41 5 28 -2.2 60 60 NW 7 11 30.06 1018 10 16.0934 0 0
10:54 am 10:54 Sunny 47 8.3 29 -1.7 50 50 NNW 22 35 30.1 1019 10 16.0934 0 0
11:54 am 11:54 Sunny 50 10 28 -2.2 43 43 NNW 16 26 30.11 1020 10 16.0934 0 0
12:54 pm 12:54 Sunny 49 9.4 25 -3.9 39 39 NNW 23 37 30.11 1020 10 16.0934 0 0
1:54 pm 13:54 Sunny 50 10 21 -6.1 32 32 NW 24 39 30.13 1020 10 16.0934 0 0
2:54 pm 14:54 Sunny 50 10 20 -6.7 30 30 NW 23 37 30.14 1021 10 16.0934 0 0
3:54 pm 15:54 Sunny 49 9.4 22 -5.6 35 35 NW 20 31 30.18 1022 10 16.0934 0 0
4:54 pm 16:54 Sunny 46 7.8 23 -5 40 40 NNW 14 22 30.21 1023 10 16.0934 0 0
5:54 pm 17:54 Clear 42 5.6 25 -3.9 51 51 NNW 18 30 30.25 1025 10 16.0934 0 0
6:54 pm 18:54 Clear 39 3.9 26 -3.3 60 60 NW 12 19 30.29 1026 10 16.0934 0 0
7:54 pm 19:54 Clear 36 2.2 26 -3.3 67 67 NW 9 15 30.31 1027 10 16.0934 0 0
8:54 pm 20:54 Clear 34 1.1 25 -3.9 70 70 NW 12 19 30.34 1027 10 16.0934 0 0
9:54 pm 21:54 Clear 32 0 25 -3.9 75 75 NW 10 17 30.36 1028 10 16.0934 0 0
10:54 pm 22:54 Clear 31 -0.6 24 -4.4 76 76 WNW 6 9 30.39 1029 10 16.0934 0 0
11:54 pm 23:54 Clear 30 -1.1 24 -4.4 79 79 NW 10 17 30.4 1030 10 16.0934 0 0

Powered by AerisWeather